Location: Unspecified
(0.0000°N, 0.0000°E)
Time: 18:49:27
(UTC+00:00)

Vanguard 1 - Pass Details

Date: 12 December 2017
Orbit: 650 x 3833 km, 34.3° (Epoch: 23 June)

Event Time Altitude Azimuth Distance (km) Brightness Sun altitude
Rises 10:38:26 0° 283° (WNW) 7,855 14.4 60.5°
Reaches altitude 10° 10:48:03 10° 302° (WNW) 6,409 14.1 61.9°
Maximum altitude 10:58:07 16° 333° (NNW) 5,185 13.6 63.2°
Drops below altitude 10° 11:06:04 10° 6° (N) 4,890 13.5 64.1°
Sets 11:11:38 0° 28° (NNE) 5,255 13.6 64.7°
